STARLINK-3049 (49436 NORAD) Tracking and Keplerian Element Data

This shows tracking and keplerian element data for the satellite.

Feedback or suggestion? Click here.




ElementValue
Catalog49436
NameSTARLINK-3049
Epoch Orbit369
Epoch Day15.91668981
Epoch Year2022
RAAN179.36
Inclination53.2153
Eccentricity0.0002917
Argument of Perigee9.6706
Mean Anonmoly195.6334
Mean Motion15.73218083
Decay Rate-0.00048774
L11 49436U 21104AE 22015.91668981 -.00048774 00000+0 -34474-3 0 9998
L22 49436 53.2153 179.3600 0002917 9.6706 195.6334 15.73218083 3697

Live tracking and technical data element details for STARLINK-3049 (NORAD 49436). STARLINK-3049 can be tracked NOW for your location showing map with azimuth and elevation plus other details from your city location.

Track the satellite on the map from your city or location and see movement details for azimuth, elevation, latitude, longitude, range, height, and movement on the map or in text.







IsCatalogInMostPopularTable: catalog: 49436, numindb: 7
Update: records affected: 1



GetName: 49436 STARLINK-3049

Hit Count: updated at: Thu, 20 Jan 2022 17:57:58 GMT